Siskiyou Pass Past Weather

Last 30 Days

 
High: 51ºf @12:54 AM    Low: 45ºf @3:54 AM     Approx. Precipitation / Rain Total: in.
Time (PDT)Temp. (ºf)Humidity (%)Dew Point (ºf)Barometer (inHG)Wind Speed (mph)Wind DirectionWind Gust (mph)1hr. Precip / Rain Total (in.)Snow Depth
3:54 AM456533.95-2.61ne4.34--
2:54 AM476134.26-2.61ne4.34--
1:54 AM495935.3-3.48ne4.34--
12:54 AM515635.86-1.74ne3.48--
High: 78ºf @3:54 PM    Low: 43ºf @2:54 AM     Approx. Precipitation / Rain Total: in.
Time (PDT)Temp. (ºf)Humidity (%)Dew Point (ºf)Barometer (inHG)Wind Speed (mph)Wind DirectionWind Gust (mph)1hr. Precip / Rain Total (in.)Snow Depth
11:54 PM564333.82-0.87nne4.34--
10:54 PM603733.65-2.61ene4.34--
9:54 PM633333.44-2.61nne9.56--
8:54 PM643535.8-0.87ene6.95--
7:54 PM702835.39-1.74nw5.21--
6:54 PM752334.68-2.61wnw6.95--
5:54 PM762335.51-2.61n9.56--
4:54 PM772336.35-2.61nne6.95--
3:54 PM782337.18-0.87wnw9.56--
1:54 PM762436.59-2.61wsw9.56--
12:54 PM752738.74-1.74wnw7.82--
11:54 AM703339.56-4.34nw9.56--
10:54 AM663940.33-4.34nw9.56--
9:54 AM644542.23-2.61wnw11.3--
8:54 AM624741.54-1.74nw5.21--
7:54 AM585441.45-0.87nnw5.21--
6:54 AM457637.9-0.87ene2.61--
5:54 AM466836.04-1.74nne5.21--
3:54 AM457236.53-0.87n5.21--
2:54 AM437134.25-0.87ene3.48--
1:54 AM466936.41-0.87ne3.48--
12:54 AM515535.41-0.87ene5.21--
High: 72ºf @3:54 PM    Low: 39ºf @5:54 AM     Approx. Precipitation / Rain Total: in.
Time (PDT)Temp. (ºf)Humidity (%)Dew Point (ºf)Barometer (inHG)Wind Speed (mph)Wind DirectionWind Gust (mph)1hr. Precip / Rain Total (in.)Snow Depth
11:54 PM534532.23-2.61ene6.08--
10:54 PM553930.5-1.74ne11.3--
9:54 PM504831.09-1.74ne3.48--
7:54 PM652528.32-1.74nnw6.08--
6:54 PM702128.27-1.74nnw9.56--
5:54 PM702128.27-2.61n9.56--
4:54 PM722332.17-2.61nw10.43--
3:54 PM722433.23-2.61nw10.43--
2:54 PM712533.4-5.21nw10.43--
1:54 PM692733.62-4.34nw11.3--
12:54 PM683136.23-3.48wnw11.3--
10:54 AM613935.86-3.48nw9.56--
9:54 AM594034.71-1.74wnw6.08--
8:54 AM564534.96-0.87nne6.08--
7:54 AM505735.37-2.61nne8.69--
6:54 AM447135.21-2.61ne6.95--
5:54 AM397832.73-1.74ne4.34--
4:54 AM417634.02---5.21--
3:54 AM427333.98-1.74ne6.08--
2:54 AM446934.49-1.74ne7.82--
1:54 AM466434.51-3.48ne9.56--
12:54 AM476134.26-1.74n6.95--
High: 66ºf @2:54 PM    Low: 42ºf @5:54 AM     Approx. Precipitation / Rain Total: in.
Time (PDT)Temp. (ºf)Humidity (%)Dew Point (ºf)Barometer (inHG)Wind Speed (mph)Wind DirectionWind Gust (mph)1hr. Precip / Rain Total (in.)Snow Depth
11:54 PM485733.5-2.61ne7.82--
10:54 PM505132.59-1.74nw7.82--
8:54 PM563931.4-5.21n19.12--
7:54 PM593329.94-4.34nnw14.77--
6:54 PM632627.58-3.48nnw14.77--
5:54 PM642022.13-4.34nnw14.77--
4:54 PM652022.96-4.34nnw15.64--
3:54 PM652326.3-5.21nw13.03--
2:54 PM662831.96-3.48nw15.64--
1:54 PM643233.55-4.34nw14.77--
12:54 PM623634.74-6.08nw15.64--
11:54 AM604337.44-5.21wnw14.77--
10:54 AM574736.97-5.21nw15.64--
9:54 AM535436.8-5.21nw19.12--
8:54 AM515836.75-4.34nw15.64--
7:54 AM486235.61-4.34nnw13.9--
6:54 AM447135.21-4.34nw13.03--
5:54 AM427434.32-3.48nw12.17--
4:54 AM446934.49-3.48nnw10.43--
3:54 AM437134.25-2.61nne12.17--
2:54 AM446934.49-3.48nne8.69--
1:54 AM466334.12-4.34-10.43--
12:54 AM475933.42-3.48nw12.17--
High: 66ºf @4:54 PM    Low: 36ºf @5:54 AM     Approx. Precipitation / Rain Total: in.
Time (PDT)Temp. (ºf)Humidity (%)Dew Point (ºf)Barometer (inHG)Wind Speed (mph)Wind DirectionWind Gust (mph)1hr. Precip / Rain Total (in.)Snow Depth
11:54 PM485633.06-4.34wnw13.03--
10:54 PM515133.51-2.61wnw13.03--
9:54 PM534431.68-3.48wnw10.43--
8:54 PM554031.13-2.61wnw13.03--
7:54 PM583530.51-4.34nnw13.9--
6:54 PM623030.21-4.34nw15.64--
5:54 PM642931.11-4.34n13.9--
4:54 PM662731.06-4.34n15.64--
2:54 PM642729.35-6.95nw17.38--
1:54 PM632627.58-6.95nw17.38--
12:54 PM622323.78-6.08nnw15.64--
11:54 AM602221.05-5.21n15.64--
10:54 AM562116.63-4.34nnw15.64--
9:54 AM513423.63-5.21ne16.51--
8:54 AM484728.74-4.34ne16.51--
7:54 AM436030.08-4.34ne12.17--
6:54 AM387129.45-5.21ene10.43--
5:54 AM367328.2-2.61ne10.43--
4:54 AM377028.14-2.61e8.69--
3:54 AM386627.67-2.61ene10.43--
2:54 AM406428.82-2.61nw11.3--
1:54 AM406027.25-2.61nw12.17--
12:54 AM415726.95-3.48wnw9.56--
High: 60ºf @4:54 PM    Low: 41ºf @5:54 AM     Approx. Precipitation / Rain Total: in.
Time (PDT)Temp. (ºf)Humidity (%)Dew Point (ºf)Barometer (inHG)Wind Speed (mph)Wind DirectionWind Gust (mph)1hr. Precip / Rain Total (in.)Snow Depth
11:54 PM435327.05-3.48wnw12.17--
10:54 PM445127.05-4.34nw14.77--
9:54 PM464726.91-3.48wnw10.43--
8:54 PM493824.51-2.61nw12.17--
7:54 PM522819.92-4.34nnw13.03--
6:54 PM572925.07-3.48nnw17.38--
5:54 PM592725.07-4.34nnw15.64--
4:54 PM602322.1-4.34nw13.9--
3:54 PM602322.1-3.48nnw17.38--
2:54 PM592220.22-6.08nw16.51--
1:54 PM582724.22-5.21wnw19.12--
12:54 PM562722.5-5.21nw17.38--
11:54 AM553024.14-5.21nnw19.12--
10:54 AM524229.63-5.21nw18.25--
9:54 AM494930.68-5.21nw20.86--
8:54 AM465832.06-5.21wnw15.64--
7:54 AM465731.63-3.48nnw10.43--
6:54 AM417031.98-0.87nnw11.3--
5:54 AM416931.62-2.61nnw14.77--
4:54 AM436632.43-5.21nnw17.38--
3:54 AM446533-3.48nw13.9--
2:54 AM466032.9-4.34nw15.64--
1:54 AM475431.23-4.34nw13.9--
12:54 AM495031.18-4.34nnw13.9--
High: 76ºf @1:54 PM    Low: 51ºf @11:54 PM     Approx. Precipitation / Rain Total: in.
Time (PDT)Temp. (ºf)Humidity (%)Dew Point (ºf)Barometer (inHG)Wind Speed (mph)Wind DirectionWind Gust (mph)1hr. Precip / Rain Total (in.)Snow Depth
11:54 PM515234-3.48nw10.43--
10:54 PM525938.12-3.48nw10.43--
9:54 PM555137.21-2.61nw13.9--
8:54 PM565037.63-3.48nw16.51--
7:54 PM594638.25-4.34nw13.03--
6:54 PM643737.2-3.48nnw12.17--
4:54 PM693237.91-1.74s9.56--
2:54 PM742333.84-5.21se13.03--
1:54 PM761626.56-2.61s14.77--
12:54 PM732333-6.08se16.51--
11:54 AM722736.18-6.08se15.64--
10:54 AM702633.53-2.61s13.03--
9:54 AM683035.4-4.34sse13.03--
8:54 AM653637.39-3.48se10.43--
7:54 AM633434.19-5.21se12.17--
6:54 AM603834.32-6.95ese13.03--
5:54 AM594235.94-5.21ese13.03--
4:54 AM604136.23-6.08ese11.3--
3:54 AM623836.1-5.21ese9.56--
2:54 AM633534.92-4.34ese8.69--
1:54 AM643435.07-3.48ese9.56--
12:54 AM653335.19-4.34ese9.56--
High: 82ºf @2:54 PM    Low: 37ºf @5:54 AM     Approx. Precipitation / Rain Total: in.
Time (PDT)Temp. (ºf)Humidity (%)Dew Point (ºf)Barometer (inHG)Wind Speed (mph)Wind DirectionWind Gust (mph)1hr. Precip / Rain Total (in.)Snow Depth
11:54 PM535235.85-0.87sse5.21--
10:54 PM535336.33-0.87nne3.48--
9:54 PM574736.97-0.87nne3.48--
8:54 PM623836.1-1.74ne3.48--
7:54 PM722129.92-1.74se5.21--
6:54 PM761930.76-0.87sw5.21--
5:54 PM791628.97-0.87s9.56--
4:54 PM811223.6-2.61s10.43--
3:54 PM811325.52-2.61s13.9--
2:54 PM821834.3-2.61sse11.3--
1:54 PM811934.84-2.61ssw8.69--
12:54 PM802136.54-2.61s9.56--
11:54 AM792236.89-2.61s8.69--
10:54 AM752536.78-1.74s6.08--
9:54 AM683136.23-0.87ssw3.48--
8:54 AM624238.64---2.61--
7:54 AM515836.75-1.74nw3.48--
6:54 AM398233.98-0.87nne3.48--
5:54 AM378031.41---2.61--
4:54 AM397632.09-1.74nne4.34--
3:54 AM407532.73-1.74nne3.48--
2:54 AM426932.58-1.74nne4.34--
1:54 AM446231.83-1.74nne5.21--
12:54 AM455931.54-0.87ne3.48--
High: 73ºf @4:54 PM    Low: 46ºf @5:54 AM     Approx. Precipitation / Rain Total: in.
Time (PDT)Temp. (ºf)Humidity (%)Dew Point (ºf)Barometer (inHG)Wind Speed (mph)Wind DirectionWind Gust (mph)1hr. Precip / Rain Total (in.)Snow Depth
11:54 PM495232.15-0.87ene3.48--
10:54 PM563629.43-0.87ne4.34--
9:54 PM583731.88-1.74ne10.43--
8:54 PM603230.06-1.74nw7.82--
7:54 PM652124.12-0.87nnw8.69--
6:54 PM701723.18-2.61nnw11.3--
5:54 PM711317.69-3.48nw10.43--
4:54 PM731420.99-3.48nnw13.03--
3:54 PM721420.2-3.48nw12.17--
2:54 PM722028.73-5.21nw10.43--
12:54 PM693741.63-2.61wnw9.56--
11:54 AM664342.86-2.61wnw10.43--
10:54 AM624842.08-3.48nw11.3--
9:54 AM595442.38-3.48n11.3--
8:54 AM566142.74-3.48n10.43--
7:54 AM477840.5-2.61ne6.95--
6:54 AM487741.14-0.87e6.95--
5:54 AM467739.2-1.74e9.56--
4:54 AM477338.8-2.61ne13.03--
3:54 AM497039.65-3.48nnw13.9--
2:54 AM516338.85-4.34nw12.17--
1:54 AM516238.44-1.74nnw10.43--
12:54 AM526038.55-3.48nw13.03--
High: 68ºf @5:54 PM    Low: 41ºf @6:54 AM     Approx. Precipitation / Rain Total: in.
Time (PDT)Temp. (ºf)Humidity (%)Dew Point (ºf)Barometer (inHG)Wind Speed (mph)Wind DirectionWind Gust (mph)1hr. Precip / Rain Total (in.)Snow Depth
11:54 PM545638.66-4.34nw14.77--
10:54 PM555338.19-3.48nw11.3--
9:54 PM574837.51-3.48nw9.56--
8:54 PM584235.04-2.61nw7.82--
7:54 PM623534.03-2.61nw13.03--
6:54 PM672933.69-2.61nw11.3--
5:54 PM682732.77-4.34nw13.9--
4:54 PM682631.83-4.34n13.9--
3:54 PM682732.77-3.48nw15.64--
1:54 PM662630.13-5.21nw17.38--
12:54 PM642224.4-5.21n14.77--
10:54 AM573328.19-6.08n14.77--
9:54 AM554433.49-3.48n13.9--
8:54 AM525536.34-3.48nne13.03--
7:54 AM466434.51-4.34ene9.56--
6:54 AM417634.02-1.74ne6.95--
4:54 AM427333.98-0.87ne9.56--
3:54 AM427233.64-3.48ne11.3--
2:54 AM456734.71-2.61nnw9.56--
1:54 AM456734.71-2.61n9.56--
12:54 AM466434.51-3.48n10.43--
High: 64ºf @4:54 PM    Low: 44ºf @5:54 AM     Approx. Precipitation / Rain Total: in.
Time (PDT)Temp. (ºf)Humidity (%)Dew Point (ºf)Barometer (inHG)Wind Speed (mph)Wind DirectionWind Gust (mph)1hr. Precip / Rain Total (in.)Snow Depth
11:54 PM476134.26-4.34n12.17--
10:54 PM485733.5-2.61nw10.43--
9:54 PM505132.59-3.48nw11.3--
8:54 PM534632.78-1.74nw10.43--
7:54 PM563830.76-2.61nnw13.03--
6:54 PM613331.69-4.34nw15.64--
5:54 PM633131.89-2.61nnw14.77--
4:54 PM642224.4-4.34nnw14.77--
3:54 PM642830.24-4.34nnw14.77--
2:54 PM643233.55-5.21nw19.12--
1:54 PM633836.99-4.34wnw13.9--
12:54 PM624138.03-4.34wnw13.9--
11:54 AM594638.25-4.34nnw13.03--
10:54 AM575340.04-3.48nw14.77--
9:54 AM496638.14-4.34nnw12.17--
8:54 AM476836.99-4.34nw13.03--
7:54 AM467237.49-2.61nw11.3--
6:54 AM447636.93-2.61nw15.64--
5:54 AM447235.56-3.48nw13.03--
4:54 AM447536.59-4.34nw15.64--
3:54 AM457336.87-4.34nw13.9--
2:54 AM457336.87-4.34wnw13.9--
1:54 AM456935.45-3.48nw10.43--
12:54 AM476636.24-3.48nw12.17--
High: 72ºf @12:54 PM    Low: 48ºf @11:54 PM     Approx. Precipitation / Rain Total: in.
Time (PDT)Temp. (ºf)Humidity (%)Dew Point (ºf)Barometer (inHG)Wind Speed (mph)Wind DirectionWind Gust (mph)1hr. Precip / Rain Total (in.)Snow Depth
11:54 PM486034.79-4.34nw10.43--
10:54 PM505434.02-3.48nw11.3--
9:54 PM524631.87-3.48nw7.82--
8:54 PM544633.69-2.61nnw11.3--
7:54 PM564635.51-3.48nnw13.9--
6:54 PM594235.94-5.21nnw18.25--
5:54 PM643636.51-4.34nnw19.99--
4:54 PM664040.98-5.21nnw15.64--
3:54 PM664141.62-5.21nw17.38--
2:54 PM703943.89-5.21nnw14.77--
1:54 PM703843.21-5.21nw13.9--
12:54 PM723844.99-5.21nnw13.03--
10:54 AM664644.62-4.34nnw14.77--
9:54 AM634340.15-6.08wnw13.03--
8:54 AM624439.83-1.74nw13.03--
7:54 AM595040.39-1.74nw3.48--
6:54 AM496236.55-1.74ne4.34--
5:54 AM535235.85-0.87nw6.08--
4:54 AM535034.86-0.87wnw9.56--
3:54 AM554634.6-2.61nw10.43--
2:54 AM574133.54-2.61nnw9.56--
1:54 AM573630.31-1.74nw9.56--
12:54 AM583228.31-0.87nnw6.95--
High: 79ºf @3:54 PM    Low: 41ºf @5:54 AM     Approx. Precipitation / Rain Total: in.
Time (PDT)Temp. (ºf)Humidity (%)Dew Point (ºf)Barometer (inHG)Wind Speed (mph)Wind DirectionWind Gust (mph)1hr. Precip / Rain Total (in.)Snow Depth
11:54 PM582925.93-2.61n6.08--
9:54 PM594034.71---2.61--
8:54 PM653032.81-0.87nnw6.08--
7:54 PM682530.86-3.48ese8.69--
6:54 PM712634.38-3.48se10.43--
5:54 PM742434.91-4.34se9.56--
4:54 PM771830.24-5.21se11.3--
3:54 PM791425.73-3.48sse10.43--
2:54 PM791730.45-6.08se11.3--
1:54 PM781932.39-5.21se14.77--
12:54 PM792135.71-5.21se13.03--
11:54 AM762739.59-3.48sse12.17--
10:54 AM742838.81-4.34sse10.43--
9:54 AM703843.21-0.87wsw3.48--
8:54 AM654241.34-0.87nw3.48--
7:54 AM556342.64-0.87ene3.48--
6:54 AM418637.14---3.48--
5:54 AM418536.84-1.74ne3.48--
4:54 AM438137.58-1.74ne3.48--
3:54 AM448138.55-1.74ne2.61--
2:54 AM467638.87-0.87ne2.61--
1:54 AM477338.8---2.61--
12:54 AM506839.86---2.61--
High: 84ºf @2:54 PM    Low: 39ºf @6:54 AM     Approx. Precipitation / Rain Total: in.
Time (PDT)Temp. (ºf)Humidity (%)Dew Point (ºf)Barometer (inHG)Wind Speed (mph)Wind DirectionWind Gust (mph)1hr. Precip / Rain Total (in.)Snow Depth
11:54 PM536240.33-0.87nne2.61--
10:54 PM565841.43-0.87ne2.61--
9:54 PM634038.3---7.82--
8:54 PM682934.55-3.48e10.43--
7:54 PM712634.38-5.21ese12.17--
6:54 PM762436.59-5.21se12.17--
5:54 PM792034.49-5.21se9.56--
2:54 PM841225.92-4.34se11.3--
1:54 PM831428.88-4.34sse11.3--
12:54 PM831530.57-2.61s11.3--
11:54 AM801528.19-2.61s9.56--
10:54 AM753142.3-0.87wsw3.48--
9:54 AM693237.91-0.87wnw2.61--
8:54 AM624741.54---2.61--
7:54 AM526239.39---2.61--
6:54 AM398233.98-0.87nne2.61--
5:54 AM398133.67-2.61n3.48--
4:54 AM398033.36---3.48--
3:54 AM408034.34-1.74nne4.34--
2:54 AM447034.85-2.61nne4.34--
1:54 AM447335.91-0.87nne4.34--
12:54 AM457035.81-3.48ne4.34--
High: 77ºf @2:54 PM    Low: 32ºf @4:54 AM     Approx. Precipitation / Rain Total: in.
Time (PDT)Temp. (ºf)Humidity (%)Dew Point (ºf)Barometer (inHG)Wind Speed (mph)Wind DirectionWind Gust (mph)1hr. Precip / Rain Total (in.)Snow Depth
9:54 PM554936.19-2.61ne5.21--
8:54 PM594537.69-0.87nne3.48--
7:54 PM673034.54---4.34--
6:54 PM722332.17---5.21--
5:54 PM751929.94-0.87s5.21--
4:54 PM752031.2-1.74w6.95--
3:54 PM751929.94-2.61n6.95--
2:54 PM771830.24-1.74w6.08--
1:54 PM761930.76-0.87w6.95--
12:54 PM732535.09-1.74w7.82--
11:54 AM692733.62-1.74sw7.82--
10:54 AM672731.91-0.87w4.34--
9:54 AM632627.58-0.87n4.34--
8:54 AM573730.99-0.87nw4.34--
6:54 AM328628.3-3.48nne4.34--
5:54 AM338428.7-1.74nne4.34--
4:54 AM328528.01-0.87nne3.48--
3:54 AM338328.41-1.74ne3.48--
2:54 AM338428.7-0.87nne3.48--
1:54 AM348028.49-2.61nne4.34--
12:54 AM367729.5-2.61ne3.48--
High: 63ºf @3:54 PM    Low: 32ºf @5:54 AM     Approx. Precipitation / Rain Total: in.
Time (PDT)Temp. (ºf)Humidity (%)Dew Point (ºf)Barometer (inHG)Wind Speed (mph)Wind DirectionWind Gust (mph)1hr. Precip / Rain Total (in.)Snow Depth
11:54 PM387430.46-0.87n3.48--
10:54 PM416931.62-1.74nne3.48--
9:54 PM446533-0.87ne4.34--
8:54 PM505032.1-0.87ene5.21--
7:54 PM553527.86-0.87nnw7.82--
6:54 PM602725.93-2.61wnw12.17--
5:54 PM622828.52-2.61wnw10.43--
3:54 PM632930.24-4.34wnw11.3--
2:54 PM633131.89-3.48wnw10.43--
1:54 PM623433.31-3.48nw10.43--
12:54 PM603934.97-2.61wnw12.17--
11:54 AM574032.92-3.48nw10.43--
10:54 AM544432.58-2.61nnw15.64--
9:54 AM495232.15-3.48nne10.43--
8:54 AM465932.48-3.48nne9.56--
5:54 AM328728.58-1.74ne4.34--
12:54 AM387229.79-2.61nne6.08--
High: 52ºf @2:54 PM    Low: 32ºf @3:54 AM     Approx. Precipitation / Rain Total: in.
Time (PDT)Temp. (ºf)Humidity (%)Dew Point (ºf)Barometer (inHG)Wind Speed (mph)Wind DirectionWind Gust (mph)1hr. Precip / Rain Total (in.)Snow Depth
11:54 PM387129.45-2.61e6.95--
10:54 PM406729.94-1.74nw10.43--
9:54 PM435628.39-2.61nw11.3--
8:54 PM435829.25-1.74nnw9.56--
7:54 PM454927-3.48nnw11.3--
6:54 PM484929.76-2.61wnw10.43--
5:54 PM504328.39-4.34nw13.03--
4:54 PM503825.4-3.48nne9.56--
3:54 PM513725.65-2.61nnw9.56--
2:54 PM523827.19-4.34n12.17--
12:54 PM514530.41-3.48nnw9.56--
11:54 AM495031.18-3.48nnw11.3--
10:54 AM485331.69-2.61nne9.56--
9:54 AM446533-3.48n8.69--
8:54 AM427434.32-1.74-7.82--
7:54 AM369033.36---2.61--
6:54 AM339832.5---1.74--
5:54 AM339832.5---4.34--
4:54 AM339832.5-0.87ne3.48--
3:54 AM329831.5---1.74--
2:54 AM329831.5---1.74--
1:54 AM339832.5---2.61--
12:54 AM339832.5---1.74--
High: 42ºf @2:54 PM    Low: 34ºf @11:54 PM     Approx. Precipitation / Rain Total: in.
Time (PDT)Temp. (ºf)Humidity (%)Dew Point (ºf)Barometer (inHG)Wind Speed (mph)Wind DirectionWind Gust (mph)1hr. Precip / Rain Total (in.)Snow Depth
11:54 PM349833.5---2.61--
10:54 PM359834.49---1.74--
9:54 PM359734.24-0.87ne2.61--
8:54 PM379736.23---1.74--
7:54 PM379435.44---1.74--
6:54 PM398735.46---3.48--
5:54 PM389235.89-1.74nne8.69--
4:54 PM408234.96-5.21se10.43--
3:54 PM427835.65-5.21se11.3--
2:54 PM428337.22-2.61s9.56--
1:54 PM379134.62-2.61e13.03--
12:54 PM369033.36-3.48se8.69--
11:54 AM369233.91-3.48ese10.43--
10:54 AM359433.45-2.61sse9.56--
9:54 AM369133.63-6.08se13.03--
8:54 AM369133.63-5.21se13.9--
7:54 AM378833.78-6.95ese13.9--
6:54 AM369033.36-6.08se13.9--
5:54 AM378934.06-4.34se9.56--
4:54 AM368832.8-4.34ese10.43--
3:54 AM378232.03-5.21ese10.43--
2:54 AM387631.12-3.48se9.56--
1:54 AM397531.76-6.08ese11.3--
12:54 AM407432.39-5.21se10.43--
High: 53ºf @2:54 PM    Low: 40ºf @11:54 PM     Approx. Precipitation / Rain Total: in.
Time (PDT)Temp. (ºf)Humidity (%)Dew Point (ºf)Barometer (inHG)Wind Speed (mph)Wind DirectionWind Gust (mph)1hr. Precip / Rain Total (in.)Snow Depth
11:54 PM407733.38-2.61se10.43--
9:54 PM426731.85-2.61wsw9.56--
8:54 PM448539.79---9.56--
7:54 PM457838.56-3.48se9.56--
6:54 PM467438.18-5.21se13.03--
5:54 PM477037.73-7.82ese13.03--
4:54 PM506438.31-3.48se14.77--
3:54 PM516640.05-4.34sse15.64--
2:54 PM535336.33-6.08se12.17--
1:54 PM515836.75-6.95se13.9--
12:54 PM534833.84-3.48sse13.03--
11:54 AM505936.24-5.21ese19.12--
10:54 AM497039.65-4.34se13.9--
9:54 AM448138.55-6.08se13.03--
8:54 AM428437.52-4.34se9.56--
7:54 AM418637.14-5.21ese13.03--
6:54 AM418637.14-6.08ese12.17--
5:54 AM418637.14-4.34se10.43--
4:54 AM428838.71-2.61se8.69--
3:54 AM438939.98-4.34ese8.69--
2:54 AM448840.68-2.61se5.21--
1:54 AM448740.38-0.87e6.08--
12:54 AM477338.8-1.74wsw7.82--
High: 68ºf @3:54 PM    Low: 33ºf @6:54 AM     Approx. Precipitation / Rain Total: in.
Time (PDT)Temp. (ºf)Humidity (%)Dew Point (ºf)Barometer (inHG)Wind Speed (mph)Wind DirectionWind Gust (mph)1hr. Precip / Rain Total (in.)Snow Depth
11:54 PM506036.67-1.74w6.95--
10:54 PM516338.85-0.87ssw4.34--
9:54 PM517744.05-0.87s12.17--
7:54 PM585039.47-6.08se13.9--
6:54 PM604337.44-6.95se15.64--
5:54 PM633937.65-6.95se18.25--
4:54 PM663336.07-6.95se15.64--
3:54 PM682732.77-6.95se13.9--
2:54 PM662731.06-3.48sse11.3--
1:54 PM662428.17-6.08se11.3--
12:54 PM672125.78-4.34se9.56--
11:54 AM661922.56-2.61s8.69--
10:54 AM632021.31-1.74sse6.95--
9:54 AM593430.67-0.87sse4.34--
8:54 AM534331.11---2.61--
7:54 AM444725.08-1.74e4.34--
6:54 AM336422.17-1.74nne5.21--
5:54 AM346924.92-2.61ne5.21--
4:54 AM396628.62-1.74ene3.48--
3:54 AM426229.94-0.87ene5.21--
2:54 AM455630.26-1.74nw6.95--
1:54 AM475029.34-2.61nw8.69--
12:54 AM484829.26-1.74nw9.56--
High: 70ºf @3:54 PM    Low: 38ºf @4:54 AM     Approx. Precipitation / Rain Total: in.
Time (PDT)Temp. (ºf)Humidity (%)Dew Point (ºf)Barometer (inHG)Wind Speed (mph)Wind DirectionWind Gust (mph)1hr. Precip / Rain Total (in.)Snow Depth
11:54 PM504428.95-3.48nw7.82--
10:54 PM513826.3-0.87nw7.82--
9:54 PM523323.8-0.87wnw6.08--
7:54 PM602524.08-2.61nw14.77--
6:54 PM642224.4-4.34n14.77--
5:54 PM672024.61-6.08nnw15.64--
4:54 PM681924.21-5.21n15.64--
3:54 PM702027.08-3.48nne14.77--
2:54 PM701925.84-4.34nw13.9--
1:54 PM691925.03-5.21nw15.64--
12:54 PM672024.61-5.21nw13.9--
11:54 AM652225.23-4.34nw14.77--
10:54 AM632526.63-3.48nw13.03--
9:54 AM613230.93-1.74wnw11.3--
8:54 AM563730.1-1.74nne7.82--
7:54 AM514027.54-3.48wnw10.43--
6:54 AM474325.68-2.61nw13.03--
5:54 AM425326.12-1.74ne7.82--
4:54 AM386426.92-0.87nne5.21--
3:54 AM405826.43-0.87ne4.34--
2:54 AM425326.12-1.74ese4.34--
1:54 AM435025.65-1.74ne3.48--
12:54 AM474325.68-0.87s4.34--
High: 68ºf @2:54 PM    Low: 41ºf @6:54 AM     Approx. Precipitation / Rain Total: in.
Time (PDT)Temp. (ºf)Humidity (%)Dew Point (ºf)Barometer (inHG)Wind Speed (mph)Wind DirectionWind Gust (mph)1hr. Precip / Rain Total (in.)Snow Depth
11:54 PM513725.65-1.74e9.56--
10:54 PM543426.27-2.61n10.43--
9:54 PM553225.69-2.61nw9.56--
8:54 PM572824.23-2.61nw10.43--
7:54 PM602524.08-1.74n13.9--
6:54 PM642123.29-3.48nw12.17--
5:54 PM672024.61-3.48wnw16.51--
4:54 PM671923.38-3.48wnw13.03--
3:54 PM672125.78-4.34nw13.03--
2:54 PM682227.74-3.48wnw12.17--
1:54 PM672327.98-4.34nw12.17--
12:54 PM632526.63-4.34nw13.9--
11:54 AM612726.78-4.34nw12.17--
10:54 AM592926.79-3.48nw13.03--
9:54 AM553225.69-3.48nnw12.17--
8:54 AM523625.88-2.61n9.56--
7:54 AM474124.53-2.61n9.56--
6:54 AM414822.83-1.74nne9.56--
5:54 AM414822.83-1.74ne7.82--
4:54 AM424823.75-1.74nne6.95--
3:54 AM444825.59-2.61nne7.82--
2:54 AM474325.68-2.61nw11.3--
1:54 AM464324.77-1.74nne10.43--
12:54 AM475129.82-2.61nne12.17--
High: 57ºf @5:54 PM    Low: 46ºf @6:54 AM     Approx. Precipitation / Rain Total: in.
Time (PDT)Temp. (ºf)Humidity (%)Dew Point (ºf)Barometer (inHG)Wind Speed (mph)Wind DirectionWind Gust (mph)1hr. Precip / Rain Total (in.)Snow Depth
11:54 PM505233.07-3.48nnw13.03--
10:54 PM515334.48-3.48nnw12.17--
9:54 PM524933.44-4.34nw13.03--
8:54 PM534833.84-4.34nnw14.77--
7:54 PM535235.85-3.48nw14.77--
6:54 PM555338.19-3.48nnw12.17--
5:54 PM575239.55-2.61wnw14.77--
4:54 PM565339.11-4.34nw13.9--
3:54 PM535939.06-6.08nw19.12--
2:54 PM527042.52-4.34nw13.03--
1:54 PM555438.66-5.21nw14.77--
12:54 PM525938.12-4.34nw14.77--
11:54 AM525938.12-5.21nw17.38--
10:54 AM545638.66-5.21nw13.9--
7:54 AM525234.93-3.48nne9.56--
6:54 AM466334.12-2.61nne8.69--
5:54 AM485633.06-3.48nne8.69--
4:54 AM515133.51-4.34nne13.9--
3:54 AM505233.07-2.61nne9.56--
2:54 AM504931.6-2.61nne12.17--
1:54 AM534129.94-4.34n13.03--
12:54 AM563428.03-2.61nw12.17--
High: 76ºf @2:54 PM    Low: 44ºf @6:54 AM     Approx. Precipitation / Rain Total: in.
Time (PDT)Temp. (ºf)Humidity (%)Dew Point (ºf)Barometer (inHG)Wind Speed (mph)Wind DirectionWind Gust (mph)1hr. Precip / Rain Total (in.)Snow Depth
11:54 PM573428.91-3.48n10.43--
10:54 PM583329.06-3.48nw9.56--
9:54 PM603129.28-1.74nw10.43--
8:54 PM622727.64-3.48nw11.3--
7:54 PM662529.17-2.61nw9.56--
6:54 PM702229.4-1.74nw11.3--
5:54 PM722028.73-4.34nnw13.9--
4:54 PM732029.55-4.34n10.43--
3:54 PM742030.38-2.61wnw7.82--
2:54 PM761829.43-2.61wnw10.43--
1:54 PM741726.42-3.48wnw12.17--
12:54 PM722028.73-3.48wnw11.3--
11:54 AM692228.57-5.21nnw14.77--
10:54 AM682328.82-3.48n12.17--
9:54 AM652730.21-2.61nnw6.95--
8:54 AM613633.86-1.74nw6.95--
7:54 AM554332.92-2.61e8.69--
6:54 AM446332.23-2.61ene5.21--
5:54 AM514630.96-1.74n6.08--
4:54 AM485432.16-0.87ene5.21--
3:54 AM524531.32-0.87nnw8.69--
2:54 AM505032.1-0.87nw4.34--
1:54 AM554131.74-0.87nne5.21--
12:54 AM573730.99-1.74nw6.95--
High: 78ºf @2:54 PM    Low: 33ºf @5:54 AM     Approx. Precipitation / Rain Total: in.
Time (PDT)Temp. (ºf)Humidity (%)Dew Point (ºf)Barometer (inHG)Wind Speed (mph)Wind DirectionWind Gust (mph)1hr. Precip / Rain Total (in.)Snow Depth
11:54 PM593229.19-1.74wnw9.56--
10:54 PM583026.75-0.87wnw6.95--
9:54 PM612524.93-1.74nw7.82--
8:54 PM622727.64-1.74wnw7.82--
7:54 PM672125.78-2.61nw8.69--
6:54 PM731624.16-1.74nnw7.82--
5:54 PM751320.83-3.48nnw12.17--
4:54 PM76913.11-4.34n11.3--
3:54 PM771016.27-2.61nw10.43--
2:54 PM781119.24-3.48nw11.3--
1:54 PM771220.5-3.48nw12.17--
12:54 PM761219.73-3.48n10.43--
10:54 AM711926.66-2.61nw9.56--
9:54 AM652427.33-0.87w6.95--
8:54 AM593430.67-0.87nw3.48--
7:54 AM465329.84-0.87n3.48--
6:54 AM337325.31-1.74nne3.48--
5:54 AM337425.63---3.48--
4:54 AM356725.17-1.74nne4.34--
3:54 AM366224.26-3.48ne5.21--
2:54 AM376124.82-0.87nne4.34--
1:54 AM376124.82-1.74nne2.61--
12:54 AM395725.07-0.87n4.34--
High: 67ºf @6:54 PM    Low: 42ºf @11:54 PM     Approx. Precipitation / Rain Total: in.
Time (PDT)Temp. (ºf)Humidity (%)Dew Point (ºf)Barometer (inHG)Wind Speed (mph)Wind DirectionWind Gust (mph)1hr. Precip / Rain Total (in.)Snow Depth
11:54 PM425225.67-0.87n3.48--
10:54 PM454625.48---3.48--
9:54 PM494428.05-0.87ne2.61--
8:54 PM543828.97-0.87nne5.21--
7:54 PM602625.02---3.48--
6:54 PM671822.1-0.87w4.34--
Past Weather Disclaimer Note regarding "Approx. Precipitation / Rain Total"

Currently

Fair 46°F
30.05in
Barometer
61%
Humidity
North 0.0mph
Wind
Fair

Past Weather Nearby

More Local Information

Bookmark and Share

Go Ad Free - Become a Member